When you browse on this site, cookies collect data to enhance your experience and personalize the content and advertising you see.
Visit our Privacy Policy to learn more. By continuing to use the site, you agree to this use of cookies and data.
  • In Portugal
  • List of Countries
  • For 7 days
  • Water Temperature
  • Satellite Maps
  • Weather Map
  • Weather Widgets
  • user-avatar
    Login

    Hourly Weather Sieradzice

    Today, 24 March, Sunday

    Time Temperature Precipitation Wind Pressure Humidity
    00:00 +9°C° 0 mm 2 mps 743 mmHg 66%
    01:00 +9°C° 0 mm 2 mps 743 mmHg 76%
    02:00 +9°C° 0 mm 3 mps 744 mmHg 79%
    03:00 +9°C° 0 mm 3 mps 744 mmHg 83%
    04:00 +7°C° 0 mm 4 mps 744 mmHg 87%
    05:00 +7°C° 0 mm 4 mps 744 mmHg 86%
    06:00 +6°C° 0 mm 4 mps 744 mmHg 85%
    07:00 +7°C° 0 mm 3 mps 744 mmHg 82%
    08:00 +7°C° 0 mm 3 mps 744 mmHg 75%
    09:00 +8°C° 0 mm 3 mps 744 mmHg 69%
    10:00 +9°C° 0 mm 2 mps 744 mmHg 63%
    11:00 +10°C° 0 mm 2 mps 743 mmHg 56%
    12:00 +12°C° 0 mm 2 mps 743 mmHg 49%
    13:00 +13°C° 0 mm 2 mps 742 mmHg 43%
    14:00 +13°C° 0 mm 2 mps 742 mmHg 41%
    15:00 +13°C° 0 mm 2 mps 741 mmHg 40%
    16:00 +13°C° 0 mm 2 mps 741 mmHg 38%
    17:00 +12°C° 0 mm 2 mps 740 mmHg 41%
    18:00 +10°C° 0 mm 2 mps 740 mmHg 43%
    19:00 +9°C° 0 mm 2 mps 739 mmHg 46%
    20:00 +9°C° 0 mm 2 mps 739 mmHg 46%
    21:00 +9°C° 0 mm 1 mps 739 mmHg 45%
    22:00 +9°C° 0 mm 1 mps 739 mmHg 45%
    23:00 +9°C° 0.1 mm 1 mps 738 mmHg 48%

    Tomorrow, 25 March, Monday

    Time Temperature Precipitation Wind Pressure Humidity
    00:00 +7°C° 0.1 mm 2 mps 738 mmHg 51%
    01:00 +7°C° 0.1 mm 2 mps 737 mmHg 54%
    02:00 +7°C° 0.2 mm 2 mps 737 mmHg 59%
    03:00 +7°C° 0.2 mm 1 mps 736 mmHg 65%
    04:00 +7°C° 0.2 mm 1 mps 736 mmHg 70%
    05:00 +7°C° 0.1 mm 1 mps 736 mmHg 71%
    06:00 +6°C° 0.1 mm 2 mps 735 mmHg 72%
    07:00 +6°C° 0.1 mm 2 mps 735 mmHg 73%
    08:00 +7°C° 0.1 mm 3 mps 735 mmHg 69%
    09:00 +8°C° 0.1 mm 3 mps 735 mmHg 64%
    10:00 +8°C° 0.1 mm 4 mps 735 mmHg 60%
    11:00 +8°C° 0.3 mm 4 mps 734 mmHg 54%
    12:00 +9°C° 0.3 mm 5 mps 734 mmHg 48%
    13:00 +10°C° 0.3 mm 6 mps 733 mmHg 43%
    14:00 +9°C° 0.1 mm 6 mps 733 mmHg 45%
    15:00 +8°C° 0.1 mm 6 mps 733 mmHg 47%
    16:00 +8°C° 0.1 mm 5 mps 733 mmHg 49%
    17:00 +7°C° 0.2 mm 5 mps 734 mmHg 54%
    18:00 +6°C° 0.2 mm 5 mps 734 mmHg 60%
    19:00 +5°C° 0.2 mm 5 mps 735 mmHg 65%
    20:00 +3°C° 0 mm 5 mps 736 mmHg 67%
    21:00 +3°C° 0 mm 4 mps 736 mmHg 69%
    22:00 +3°C° 0 mm 4 mps 737 mmHg 70%
    23:00 +1°C° 0 mm 4 mps 737 mmHg 74%

    Day after tomorrow, 26 March, Tuesday

    Time Temperature Precipitation Wind Pressure Humidity
    00:00 +1°C° 0 mm 4 mps 738 mmHg 77%
    01:00 +1°C° 0 mm 4 mps 739 mmHg 80%
    02:00 0°C° 0.1 mm 4 mps 739 mmHg 82%
    03:00 0°C° 0.1 mm 4 mps 739 mmHg 84%
    04:00 0°C° 0.1 mm 4 mps 740 mmHg 87%
    05:00 0°C° 0 mm 4 mps 740 mmHg 86%
    06:00 0°C° 0 mm 4 mps 741 mmHg 85%
    07:00 0°C° 0 mm 5 mps 741 mmHg 84%
    08:00 +1°C° 0 mm 5 mps 742 mmHg 77%
    09:00 +2°C° 0 mm 5 mps 742 mmHg 71%
    10:00 +3°C° 0 mm 6 mps 742 mmHg 65%
    11:00 +4°C° 0 mm 6 mps 742 mmHg 60%
    12:00 +5°C° 0 mm 7 mps 741 mmHg 54%
    13:00 +6°C° 0 mm 7 mps 741 mmHg 49%
    14:00 +6°C° 0 mm 7 mps 741 mmHg 49%
    15:00 +6°C° 0 mm 8 mps 740 mmHg 48%
    16:00 +6°C° 0 mm 8 mps 740 mmHg 48%
    17:00 +5°C° 0 mm 8 mps 740 mmHg 52%
    18:00 +4°C° 0 mm 7 mps 741 mmHg 57%
    19:00 +3°C° 0 mm 7 mps 741 mmHg 62%
    20:00 +3°C° 0 mm 6 mps 742 mmHg 63%
    21:00 +3°C° 0 mm 6 mps 742 mmHg 65%
    22:00 +2°C° 0 mm 5 mps 743 mmHg 66%
    23:00 +3°C° 0.1 mm 4 mps 743 mmHg 68%

    27 March, Wednesday

    Time Temperature Precipitation Wind Pressure Humidity
    00:00 +2°C° 0.1 mm 3 mps 743 mmHg 70%
    01:00 +2°C° 0.1 mm 3 mps 744 mmHg 72%
    02:00 +2°C° 0 mm 2 mps 744 mmHg 73%
    03:00 +1°C° 0 mm 2 mps 744 mmHg 73%
    04:00 +1°C° 0 mm 1 mps 744 mmHg 73%
    05:00 +1°C° 0 mm 1 mps 745 mmHg 69%
    06:00 +2°C° 0 mm 1 mps 745 mmHg 65%
    07:00 +1°C° 0 mm 0 mps 746 mmHg 61%
    08:00 +4°C° 0 mm 1 mps 746 mmHg 57%
    09:00 +4°C° 0 mm 2 mps 746 mmHg 54%
    10:00 +5°C° 0 mm 2 mps 746 mmHg 50%
    11:00 +6°C° 0 mm 2 mps 746 mmHg 48%
    12:00 +7°C° 0 mm 3 mps 746 mmHg 47%
    13:00 +8°C° 0 mm 3 mps 746 mmHg 45%
    14:00 +8°C° 0 mm 3 mps 746 mmHg 45%
    15:00 +8°C° 0 mm 3 mps 745 mmHg 45%
    16:00 +8°C° 0 mm 2 mps 745 mmHg 45%
    17:00 +7°C° 0 mm 2 mps 745 mmHg 49%
    18:00 +6°C° 0 mm 2 mps 746 mmHg 52%
    19:00 +7°C° 0 mm 1 mps 746 mmHg 56%
    20:00 +6°C° 0 mm 1 mps 746 mmHg 59%
    21:00 +6°C° 0 mm 1 mps 746 mmHg 62%
    22:00 +5°C° 0 mm 2 mps 747 mmHg 65%
    23:00 +5°C° 0 mm 2 mps 747 mmHg 68%

    28 March, Thursday

    Time Temperature Precipitation Wind Pressure Humidity
    00:00 +5°C° 0 mm 2 mps 747 mmHg 71%
    01:00 +5°C° 0 mm 2 mps 747 mmHg 73%
    02:00 +4°C° 0 mm 2 mps 747 mmHg 78%
    03:00 +4°C° 0 mm 2 mps 747 mmHg 82%
    04:00 +3°C° 0 mm 2 mps 747 mmHg 86%
    05:00 +4°C° 0 mm 2 mps 747 mmHg 84%
    06:00 +5°C° 0 mm 1 mps 748 mmHg 82%
    07:00 +5°C° 0 mm 1 mps 748 mmHg 80%
    08:00 +7°C° 0 mm 1 mps 748 mmHg 73%
    09:00 +9°C° 0 mm 1 mps 748 mmHg 67%
    10:00 +10°C° 0 mm 1 mps 749 mmHg 61%
    11:00 +10°C° 0 mm 1 mps 749 mmHg 60%
    12:00 +11°C° 0 mm 1 mps 748 mmHg 58%
    13:00 +11°C° 0 mm 1 mps 748 mmHg 57%
    14:00 +11°C° 0 mm 1 mps 748 mmHg 55%
    15:00 +12°C° 0 mm 1 mps 748 mmHg 54%
    16:00 +12°C° 0 mm 1 mps 748 mmHg 53%
    17:00 +11°C° 0 mm 1 mps 748 mmHg 58%
    18:00 +10°C° 0 mm 1 mps 749 mmHg 63%
    19:00 +8°C° 0 mm 1 mps 749 mmHg 68%
    20:00 +8°C° 0 mm 1 mps 749 mmHg 69%
    21:00 +8°C° 0 mm 1 mps 749 mmHg 70%
    22:00 +8°C° 0 mm 1 mps 750 mmHg 71%
    23:00 +8°C° 0 mm 1 mps 750 mmHg 72%

    29 March, Friday

    Time Temperature Precipitation Wind Pressure Humidity
    00:00 +7°C° 0 mm 1 mps 750 mmHg 72%
    01:00 +7°C° 0 mm 1 mps 750 mmHg 73%
    02:00 +7°C° 0 mm 1 mps 750 mmHg 76%
    03:00 +6°C° 0 mm 1 mps 750 mmHg 79%
    04:00 +5°C° 0 mm 1 mps 750 mmHg 82%
    05:00 +6°C° 0 mm 1 mps 750 mmHg 79%
    06:00 +6°C° 0 mm 1 mps 750 mmHg 77%
    07:00 +7°C° 0 mm 1 mps 750 mmHg 74%
    08:00 +9°C° 0 mm 1 mps 750 mmHg 69%
    09:00 +10°C° 0 mm 1 mps 750 mmHg 63%
    10:00 +12°C° 0 mm 1 mps 750 mmHg 57%
    11:00 +12°C° 0 mm 1 mps 750 mmHg 54%
    12:00 +13°C° 0 mm 2 mps 749 mmHg 50%
    13:00 +14°C° 0 mm 2 mps 749 mmHg 47%
    14:00 +14°C° 0 mm 2 mps 748 mmHg 46%
    15:00 +14°C° 0 mm 2 mps 748 mmHg 45%
    16:00 +14°C° 0 mm 2 mps 748 mmHg 44%
    17:00 +13°C° 0 mm 2 mps 747 mmHg 50%
    18:00 +12°C° 0 mm 1 mps 747 mmHg 55%
    19:00 +10°C° 0 mm 1 mps 747 mmHg 60%
    20:00 +10°C° 0 mm 1 mps 747 mmHg 62%
    21:00 +9°C° 0 mm 1 mps 747 mmHg 64%
    22:00 +9°C° 0 mm 1 mps 747 mmHg 67%
    23:00 +8°C° 0 mm 1 mps 747 mmHg 69%
    Show more